Home > Weather > Le Mans > Past weeks

Flag for France Weather for the Past 2 Weeks in Le Mans, Pays de la Loire, France

Now
50 °F

Broken clouds.


Feels Like: 49 °F
Forecast: 38 / 54 °F
Wind: 3 mph from Northwest

Location: Le Mans Airport

Current Time: Apr 29, 2016 at 10:08:07 PM

Latest Report: Apr 29, 2016 at 9:30 PM


Visibility: N/A

Pressure: 29.98 "Hg

Humidity: 71%

Dew Point: 41 °F

Location of Le MansLocation

Historic Weather in Le Mans — Graph

°F

Le Mans Temperature Yesterday

Maximum temperature yesterday: 57 °F (at 3:00 PM)
Minimum temperature yesterday: 32 °F (at 6:00 AM)
Average temperature yesterday: 47 °F

High & Low Weather Summary for the Past Weeks

 TemperatureHumidityPressure
High70 °F (Apr 21, 2:30 PM)100% (Apr 15, 4:00 AM)30.33 "Hg (Apr 15, 4:00 AM)
Low30 °F (Apr 18, 6:00 AM)29% (Apr 18, 6:00 PM)29.62 "Hg (Apr 16, 3:30 AM)
Average50 °F66%30.00 "Hg
* Reported Apr 14 8:00 PM — Apr 29 8:30 PM, Le Mans, Weather by CustomWeather, © 2016

Note: Actual official high and low records may vary slightly from our data, if they occured in-between our weather recording intervals... More about our weather records

Advertising

Le Mans Weather History for the Previous 24 Hours

Scroll right to see more
 ConditionsComfort  
Time TempWeatherWind HumidityBarometerVisibility
8:30 PM
Fri, Apr 29
52 °FPassing clouds.5 mph72%29.98 "HgN/A
8:00 PM54 °FPassing clouds.7 mph67%29.98 "HgN/A
7:30 PM55 °FPartly sunny.7 mph63%29.98 "HgN/A
7:00 PM57 °FPassing clouds.10 mph55%29.98 "HgN/A
6:30 PM57 °FBroken clouds.9 mph59%29.98 "HgN/A
6:00 PM57 °FBroken clouds.6 mph63%29.98 "HgN/A
5:30 PM54 °FBroken clouds.10 mph67%29.98 "HgN/A
5:00 PM55 °FScattered clouds.6 mph67%29.98 "HgN/A
4:30 PM52 °FLight rain. Broken clouds.9 mph77%30.01 "HgN/A
4:00 PM50 °FBroken clouds.2 mph88%30.01 "HgN/A
3:30 PM52 °FLight rain. Partly sunny.13 mph72%30.01 "Hg5 mi
3:00 PM57 °FCloudy.14 mph48%30.01 "HgN/A
2:30 PM57 °FBroken clouds.13 mph55%30.01 "HgN/A
2:00 PM54 °FBroken clouds.9 mph72%30.01 "HgN/A
1:30 PM50 °FRain. Partly sunny.10 mph76%30.04 "HgN/A
1:00 PM55 °FPartly sunny.10 mph55%30.01 "HgN/A
12:30 PM55 °FMore clouds than sun.10 mph51%30.01 "HgN/A
12:00 PM55 °FPartly sunny.13 mph55%30.04 "HgN/A
11:30 AM55 °FBroken clouds.12 mph55%30.04 "HgN/A
11:00 AM54 °FPartly sunny.9 mph58%30.04 "HgN/A
10:00 AM52 °FPassing clouds.9 mph67%30.04 "HgN/A
9:30 AM48 °FPassing clouds.7 mph76%30.04 "HgN/A
9:00 AM46 °FPassing clouds.6 mph82%30.04 "HgN/A
8:30 AM43 °FPassing clouds.5 mph87%30.04 "HgN/A
8:00 AM41 °FSunny.3 mph87%30.04 "Hg10 mi
7:00 AM39 °FClear.2 mph87%30.04 "Hg10 mi
6:30 AM39 °FPassing clouds.3 mph87%30.04 "HgN/A
6:00 AM41 °FPassing clouds.5 mph87%30.04 "HgN/A
5:30 AM41 °FPassing clouds.3 mph87%30.04 "HgN/A
4:30 AM41 °FPassing clouds.5 mph87%30.04 "HgN/A
3:30 AM43 °FPassing clouds.5 mph81%30.04 "HgN/A
3:00 AM43 °FPassing clouds.5 mph76%30.04 "HgN/A
2:30 AM43 °FPassing clouds.6 mph81%30.04 "HgN/A
2:00 AM45 °FPassing clouds.5 mph76%30.04 "HgN/A
1:30 AM45 °FPassing clouds.3 mph76%30.04 "HgN/A
1:00 AM45 °FPassing clouds.3 mph71%30.04 "HgN/A
12:30 AM46 °FPassing clouds.5 mph66%30.04 "HgN/A
12:00 AM48 °FPassing clouds.5 mph58%30.04 "HgN/A
11:30 PM
Thu, Apr 28
48 °FClear.3 mph58%30.04 "Hg10 mi
11:00 PM48 °FClear.2 mph58%30.04 "Hg10 mi
10:30 PM50 °FClear.3 mph54%30.07 "Hg10 mi
10:00 PM50 °FSunny.3 mph54%30.04 "Hg10 mi
Weather by CustomWeather, © 2016

See weather overviewHow to use our weather pages